Location: Ceske Budejovice
(48.9830°N, 14.4670°E)
Time: 07:01:02
(UTC+02:00)

ISS - Pass Details

Date: 02 July 2022
Orbit: 412 x 420 km, 51.6° (Epoch: 18 August)

Event Time Altitude Azimuth Distance (km) Brightness Sun altitude
Exits shadow 02:30:48 20° 144° (SE) 1,027 -2.1 -15.5°
Maximum altitude 02:30:56 20° 140° (SE) 1,026 -2.1 -15.5°
Drops below altitude 10° 02:33:29 10° 91° (E) 1,501 -0.7 -15.4°
Sets 02:36:00 0° 74° (ENE) 2,392 0.7 -15.2°
